Regional Weather Roundup
Issued by NWS

Home | Current Version | Previous Version | Graphics & Text | Print | Product List | Glossary On
Versions: 1 2 3 4 5 6 7 8 9 10 11 12 13 14 15 16 17 18 19 20 21 22 23 24 25 26 27 28 29 30 31 32 33 34 35 36 37 38 39 40 41 42 43 44 45 46 47 48 49 50
000
ASUS43 KMKX 251611
RWRWI

WISCONSIN REGIONAL WEATHER ROUNDUP
NATIONAL WEATHER SERVICE MILWAUKEE/SULLIVAN WI
1100 AM CDT SAT APR 25 2015

NOTE: "FAIR" INDICATES FEW OR NO CLOUDS BELOW 12,000 FEET WITH NO
SIGNIFICANT WEATHER AND/OR OBSTRUCTIONS TO VISIBILITY.

WIZ001-002-006>008-014>016-023>028-251700-
NORTHWEST WISCONSIN

CITY           SKY/WX    TMP DP  RH WIND       PRES   REMARKS
SUPERIOR ARPT  CLOUDY    37  31  79 E18G25    30.00S WCI  27
ASHLAND        SUNNY     44  33  65 N13       29.99S
HAYWARD        SUNNY     50  19  29 SE12G17   29.92S
SIREN          SUNNY     52  23  32 E9G16     29.91S
CUMBERLAND     SUNNY     46  21  36 E10G18    29.90S
RICE LAKE      SUNNY     51  19  28 E14G21    29.91S
CHETEK         SUNNY     50  21  32 E10G16    29.90S
LADYSMITH      SUNNY     51  13  21 E14       29.92S
EAU CLAIRE     MOSUNNY   51  28  41 NE14      29.87S
MENOMONIE      MOSUNNY   50  30  45 NE12      29.88S
NEW RICHMOND   CLOUDY    48  29  47 NE12G18   29.88S
OSCEOLA        CLOUDY    49  31  51 E9        29.92S
$$

WIZ003>005-009-010-017-018-251700-
NORTH CENTRAL WISCONSIN

CITY           SKY/WX    TMP DP  RH WIND       PRES   REMARKS
MANITOWISH WTR SUNNY     47  21  35 E8        29.93F
ARBOR VITAE    SUNNY     50  20  30 SE10G16   29.92F
WOODRUFF       SUNNY     50  20  30 SE10G16   29.92F
RHINELANDER    CLOUDY    46  18  32 E10       29.94S
EAGLE RIVER    SUNNY     48  17  29 SE6       29.93F
LAND O LAKES   SUNNY     47  19  32 SE5       29.94F
PHILLIPS       SUNNY     49  20  32 E9        29.91F
TOMAHAWK       CLOUDY    49  16  27 NE7       29.93S
MEDFORD        PTSUNNY   49  16  27 E16       29.89F
MERRILL        PTSUNNY   48  19  30 E14G20    29.91F
$$

WIZ029-030-035-036-043>047-251700-
CENTRAL WISCONSIN

CITY           SKY/WX    TMP DP  RH WIND       PRES   REMARKS
WAUSAU         PTSUNNY   49  18  29 E16G26    29.90S
MOSINEE        MOSUNNY   48  18  29 E16G23    29.91F
MARSHFIELD     CLOUDY    47  22  37 E14       29.88F
STEVENS POINT  PTSUNNY   47  18  31 NE16G22   29.89F
WAUPACA        PTSUNNY   51  23  33 NE9G17    29.90S
WAUTOMA        PTSUNNY   47  27  46 NE15      29.88F
WISC RAPIDS    CLOUDY    48  21  34 E17G24    29.90R
CAMP DOUGLAS   PTSUNNY   46  39  76 E13       29.86R
$$

WIZ011>013-019>022-031-037>040-048>050-251700-
NORTHEAST WISCONSIN

CITY           SKY/WX    TMP DP  RH WIND       PRES   REMARKS
ANTIGO         CLOUDY    46  21  37 E10       29.93S
SHAWANO        CLOUDY    47  22  38 E13       29.94S
OCONTO         CLOUDY    42  21  42 E8        29.95S
STURGEON BAY   CLOUDY    41  18  38 NE13      29.98R
GREEN BAY      PTSUNNY   47  23  38 NE18      29.93F
MANITOWOC      CLOUDY    42  26  53 E12G17    29.92S
APPLETON       PTSUNNY   46  19  34 NE17G24   29.90F
CLINTONVILLE   SUNNY     48  18  29 E17       29.92S
OSHKOSH        PTSUNNY   47  28  47 NE15      29.88F
$$

WIZ032>034-041-042-053>061-251700-
SOUTHWEST WISCONSIN

CITY           SKY/WX    TMP DP  RH WIND       PRES   REMARKS
LA CROSSE      CLOUDY    48  38  68 NE10      29.85R
SPARTA         CLOUDY    46  35  66 E12G17    29.87R
VIROQUA        CLOUDY    44  38  79 E13       29.82S
BOSCOBEL       CLOUDY    48  37  65 E12G20    29.81S
PRAIRIE DU CHI CLOUDY    46  35  65 NE9       29.78S
PLATTEVILLE    CLOUDY    46  39  76 NE18      29.77R
$$

WIZ056-057-062-063-064-067-068-251700-
SOUTH CENTRAL WISCONSIN

CITY           SKY/WX    TMP DP  RH WIND       PRES   REMARKS
REEDSBURG      CLOUDY    44  36  72 E9G20     29.84S
BARABOO/DELLS  CLOUDY    44  35  69 E9        29.84S
LONE ROCK      CLOUDY    46  37  71 E14       29.82S
MINERAL POINT  PTSUNNY   45  37  76 NE16G22   29.77F
MADISON        CLOUDY    46  37  71 NE15      29.82S
MIDDLETON      CLOUDY    46  37  70 E12G20    29.82F
WATERTOWN      CLOUDY    44  38  79 E12       29.82F
MONROE         CLOUDY    45  37  76 E14G21    29.77R
JANESVILLE     CLOUDY    46  39  76 E18G25    29.78S
$$

WIZ051-052-058>065-066-070>072-251700-
SOUTHEAST WISCONSIN

CITY           SKY/WX    TMP DP  RH WIND       PRES   REMARKS
MILWAUKEE      CLOUDY    41  35  79 NE15      29.85F
WAUKESHA       CLOUDY    41  36  81 NE14      29.84F
MILWAUKEE/TIMM CLOUDY    41  32  70 NE12      29.86S
RACINE         CLOUDY    42  37  82 NE12      29.84F
BURLINGTON     CLOUDY    44  37  77 E13G18    29.80F
KENOSHA        CLOUDY    44  39  82 E18       29.80F
FOND DU LAC    CLOUDY    47  29  49 NE15G21   29.88S
SHEBOYGAN      CLOUDY    42  32  67 NE16      29.90S
WEST BEND      CLOUDY    43  32  65 NE16      29.86S
JUNEAU         CLOUDY    44  34  66 NE16G22   29.85F
$$

LSZ147-162-251700-
LAKE SUPERIOR

STATION/POSITION TIME  TEMP    WIND        PRES    WAVE
                       AIR SEA DIR/SP/G            HT/PER
                 (UTC) (F)     (DEG/KT/KT) (MB)    (FT/S)
W MID LAKE BUOY  1550   34 34   50/ 17/ 19 1018.1R   3/ 5
DEVILS ISLAND    1600   34      60/ 20/ 21 1017.3R
PORT WING        1500   37      40/ 19/ 21 1015.9
SAXON HARBOR     1540   37      40/  9/ 13 1015.2R
$$

LMZ867-665-643>646-251700-
LAKE MICHIGAN

STATION/POSITION TIME  TEMP    WIND        PRES    WAVE
                       AIR SEA DIR/SP/G            HT/PER
                 (UTC) (F)     (DEG/KT/KT) (MB)    (FT/S)
CHAMBERS ISLAND  1500   37      10/ 13/ 14 1015.9S
NORTHPORT PIER   1500   35      70/ 13/ 14 1015.9S
SISTER BAY       1517   44     120/ 10/ 12   N/A
KEWAUNEE LAKESHO 1518   37      40/ 12/ 16 1013.4S
SHEBOYGAN LAKESH 1600   37      30/ 13/ 15 1013.4R
PORT WASHINGTON  1540   40      40/ 15/ 18 1012.5F
MILWAUKEE LAKESH 1500   39      20/ 14/ 16   N/A
KENOSHA   LAKESH 1600   41      70/ 20/ 24 1009.5F
$$

TC  - TEMPERATURE IN CELSIUS
VSB - VISIBILITY IN STATUTE MILES
WCI - WIND CHILL INDEX
HX  - HEAT INDEX




USA.gov is the U.S. government's official web portal to all federal, state and local government web resources and services.